Zurück zum Katalog

COSMOS 2571

AktivMilitärLEO
NORAD 58172·PAYLOAD·🇷🇺 Russia

Gestartet Oct 27, 2023 von Plesetsk Cosmodrome

Loading…

Nächste Überflüge (nächste 24 Stunden)

TLE

AktuellSource: Space-Track

Epoche: Sep 14, 2026, 04:44 UTC

1 58172U 23165C   26257.19737299 -.00000016  00000-0  42106-4 0  9994
2 58172  67.1482  70.8094 0019701 264.5825  95.3013 13.97339803146795

Verfolge COSMOS 2571 in Echtzeit mit AllMySat

Download on the App Store